When you browse on this site, cookies collect data to enhance your experience and personalize the content and advertising you see.
Visit our Privacy Policy to learn more. By continuing to use the site, you agree to this use of cookies and data.
  • Em Portugal
  • Lista de países
  • Para 7 dias
  • Temperatura da água
  • Mapa do tempo
  • Widgets de tempo
  • user-avatar
    Iniciar Sessão

    Previsão horária em Zagornyy

    Hoje, 25 Agosto, Domingo

    Tempo Temperatura Precipitação Vento Pressão Humidade
    00:00 +15°C° 0 mm 2 m/s 757 mmHg 83%
    01:00 +15°C° 0 mm 2 m/s 757 mmHg 84%
    02:00 +14°C° 0 mm 3 m/s 757 mmHg 86%
    03:00 +14°C° 0 mm 3 m/s 757 mmHg 87%
    04:00 +14°C° 0 mm 3 m/s 757 mmHg 90%
    05:00 +13°C° 0 mm 3 m/s 757 mmHg 92%
    06:00 +13°C° 0 mm 3 m/s 757 mmHg 95%
    07:00 +16°C° 0 mm 3 m/s 757 mmHg 86%
    08:00 +17°C° 0 mm 4 m/s 758 mmHg 77%
    09:00 +18°C° 0 mm 4 m/s 758 mmHg 69%
    10:00 +19°C° 0 mm 4 m/s 758 mmHg 65%
    11:00 +20°C° 0 mm 5 m/s 758 mmHg 62%
    12:00 +21°C° 0 mm 5 m/s 758 mmHg 58%
    13:00 +21°C° 0 mm 5 m/s 758 mmHg 58%
    14:00 +21°C° 0 mm 5 m/s 759 mmHg 58%
    15:00 +21°C° 0 mm 5 m/s 759 mmHg 59%
    16:00 +19°C° 0 mm 5 m/s 759 mmHg 63%
    17:00 +18°C° 0 mm 4 m/s 759 mmHg 68%
    18:00 +17°C° 0 mm 3 m/s 759 mmHg 73%
    19:00 +16°C° 0 mm 3 m/s 760 mmHg 77%
    20:00 +13°C° 0 mm 3 m/s 760 mmHg 81%
    21:00 +13°C° 0 mm 2 m/s 761 mmHg 86%
    22:00 +13°C° 0 mm 2 m/s 761 mmHg 88%
    23:00 +12°C° 0 mm 2 m/s 761 mmHg 91%

    Amanhã, 26 Agosto, Segunda-feira

    Tempo Temperatura Precipitação Vento Pressão Humidade
    00:00 +12°C° 0 mm 2 m/s 761 mmHg 94%
    01:00 +12°C° 0 mm 2 m/s 762 mmHg 94%
    02:00 +11°C° 0 mm 1 m/s 762 mmHg 94%
    03:00 +11°C° 0 mm 1 m/s 762 mmHg 94%
    04:00 +11°C° 0 mm 1 m/s 762 mmHg 94%
    05:00 +11°C° 0 mm 1 m/s 762 mmHg 94%
    06:00 +11°C° 0 mm 1 m/s 762 mmHg 93%
    07:00 +13°C° 0 mm 1 m/s 762 mmHg 86%
    08:00 +15°C° 0 mm 1 m/s 763 mmHg 79%
    09:00 +18°C° 0 mm 1 m/s 763 mmHg 71%
    10:00 +19°C° 0 mm 1 m/s 762 mmHg 67%
    11:00 +19°C° 0 mm 2 m/s 762 mmHg 63%
    12:00 +20°C° 0 mm 2 m/s 762 mmHg 58%
    13:00 +20°C° 0 mm 2 m/s 762 mmHg 57%
    14:00 +21°C° 0 mm 2 m/s 761 mmHg 55%
    15:00 +21°C° 0 mm 3 m/s 761 mmHg 54%
    16:00 +21°C° 0 mm 2 m/s 760 mmHg 59%
    17:00 +20°C° 0 mm 2 m/s 760 mmHg 64%
    18:00 +19°C° 0 mm 2 m/s 760 mmHg 69%
    19:00 +18°C° 0 mm 2 m/s 759 mmHg 72%
    20:00 +17°C° 0 mm 2 m/s 759 mmHg 75%
    21:00 +15°C° 0 mm 2 m/s 759 mmHg 77%
    22:00 +15°C° 0 mm 2 m/s 759 mmHg 79%
    23:00 +13°C° 0 mm 3 m/s 758 mmHg 80%

    Depois de amanhã, 27 Agosto, Terça-feira

    Tempo Temperatura Precipitação Vento Pressão Humidade
    00:00 +13°C° 0 mm 3 m/s 758 mmHg 82%
    01:00 +13°C° 0 mm 3 m/s 757 mmHg 80%
    02:00 +13°C° 0 mm 3 m/s 757 mmHg 78%
    03:00 +13°C° 0 mm 4 m/s 756 mmHg 76%
    04:00 +14°C° 0 mm 4 m/s 756 mmHg 77%
    05:00 +14°C° 0 mm 4 m/s 755 mmHg 79%
    06:00 +14°C° 0 mm 4 m/s 755 mmHg 81%
    07:00 +15°C° 0 mm 4 m/s 754 mmHg 80%
    08:00 +16°C° 0 mm 5 m/s 754 mmHg 78%
    09:00 +17°C° 0 mm 5 m/s 753 mmHg 77%
    10:00 +17°C° 0.5 mm 5 m/s 753 mmHg 79%
    11:00 +18°C° 0.5 mm 4 m/s 752 mmHg 82%
    12:00 +19°C° 0.5 mm 4 m/s 752 mmHg 84%
    13:00 +19°C° 0.7 mm 4 m/s 752 mmHg 80%
    14:00 +20°C° 0.7 mm 4 m/s 751 mmHg 77%
    15:00 +21°C° 0.7 mm 4 m/s 751 mmHg 73%
    16:00 +20°C° 0.4 mm 4 m/s 751 mmHg 75%
    17:00 +19°C° 0.4 mm 4 m/s 750 mmHg 76%
    18:00 +18°C° 0.4 mm 4 m/s 750 mmHg 78%
    19:00 +17°C° 0.1 mm 4 m/s 750 mmHg 81%
    20:00 +14°C° 0.1 mm 4 m/s 751 mmHg 84%
    21:00 +13°C° 0.1 mm 4 m/s 751 mmHg 87%
    22:00 +12°C° 0 mm 4 m/s 751 mmHg 87%
    23:00 +11°C° 0 mm 4 m/s 752 mmHg 88%

    28 Agosto, Quarta-feira

    Tempo Temperatura Precipitação Vento Pressão Humidade
    00:00 +10°C° 0 mm 4 m/s 752 mmHg 89%
    01:00 +8°C° 0 mm 5 m/s 752 mmHg 86%
    02:00 +7°C° 0 mm 5 m/s 753 mmHg 83%
    03:00 +7°C° 0 mm 5 m/s 753 mmHg 81%
    04:00 +6°C° 0 mm 5 m/s 753 mmHg 80%
    05:00 +5°C° 0 mm 5 m/s 754 mmHg 78%
    06:00 +3°C° 0 mm 5 m/s 754 mmHg 77%
    07:00 +5°C° 0 mm 5 m/s 754 mmHg 72%
    08:00 +7°C° 0 mm 6 m/s 754 mmHg 68%
    09:00 +8°C° 0 mm 6 m/s 754 mmHg 63%
    10:00 +8°C° 0 mm 7 m/s 754 mmHg 62%
    11:00 +8°C° 0 mm 7 m/s 755 mmHg 62%
    12:00 +8°C° 0 mm 7 m/s 755 mmHg 61%
    13:00 +8°C° 0 mm 7 m/s 755 mmHg 61%
    14:00 +8°C° 0 mm 6 m/s 755 mmHg 61%
    15:00 +8°C° 0 mm 6 m/s 755 mmHg 61%
    16:00 +9°C° 0 mm 6 m/s 756 mmHg 63%
    17:00 +9°C° 0 mm 5 m/s 756 mmHg 65%
    18:00 +9°C° 0 mm 5 m/s 756 mmHg 67%
    19:00 +10°C° 0 mm 4 m/s 756 mmHg 68%
    20:00 +10°C° 0 mm 4 m/s 756 mmHg 70%
    21:00 +8°C° 0 mm 4 m/s 756 mmHg 71%
    22:00 +8°C° 0 mm 4 m/s 757 mmHg 73%
    23:00 +7°C° 0 mm 4 m/s 757 mmHg 74%

    29 Agosto, Quinta-feira

    Tempo Temperatura Precipitação Vento Pressão Humidade
    00:00 +7°C° 0 mm 4 m/s 757 mmHg 76%
    01:00 +6°C° 0 mm 4 m/s 757 mmHg 78%
    02:00 +6°C° 0 mm 4 m/s 757 mmHg 80%
    03:00 +5°C° 0 mm 4 m/s 757 mmHg 81%
    04:00 +5°C° 0 mm 4 m/s 757 mmHg 82%
    05:00 +5°C° 0 mm 4 m/s 757 mmHg 83%
    06:00 +3°C° 0 mm 5 m/s 757 mmHg 84%
    07:00 +6°C° 0 mm 5 m/s 757 mmHg 78%
    08:00 +7°C° 0 mm 6 m/s 758 mmHg 72%
    09:00 +8°C° 0 mm 6 m/s 758 mmHg 65%
    10:00 +9°C° 0 mm 6 m/s 758 mmHg 62%
    11:00 +11°C° 0 mm 6 m/s 758 mmHg 59%
    12:00 +13°C° 0 mm 6 m/s 758 mmHg 56%
    13:00 +13°C° 0 mm 6 m/s 758 mmHg 55%
    14:00 +14°C° 0 mm 6 m/s 758 mmHg 54%
    15:00 +14°C° 0 mm 6 m/s 758 mmHg 53%
    16:00 +13°C° 0 mm 5 m/s 758 mmHg 57%
    17:00 +13°C° 0 mm 4 m/s 758 mmHg 62%
    18:00 +12°C° 0 mm 3 m/s 758 mmHg 66%
    19:00 +11°C° 0 mm 3 m/s 758 mmHg 70%
    20:00 +9°C° 0 mm 3 m/s 758 mmHg 73%
    21:00 +8°C° 0 mm 3 m/s 758 mmHg 77%
    22:00 +7°C° 0 mm 3 m/s 759 mmHg 80%
    23:00 +7°C° 0 mm 3 m/s 759 mmHg 82%

    30 Agosto, Sexta-feira

    Tempo Temperatura Precipitação Vento Pressão Humidade
    00:00 +5°C° 0 mm 3 m/s 759 mmHg 84%
    01:00 +4°C° 0 mm 3 m/s 759 mmHg 87%
    02:00 +4°C° 0 mm 3 m/s 759 mmHg 90%
    03:00 +5°C° 0 mm 2 m/s 759 mmHg 92%
    04:00 +5°C° 0 mm 2 m/s 759 mmHg 93%
    05:00 +4°C° 0 mm 2 m/s 759 mmHg 93%
    06:00 +4°C° 0 mm 2 m/s 759 mmHg 93%
    07:00 +7°C° 0 mm 3 m/s 759 mmHg 85%
    08:00 +9°C° 0 mm 3 m/s 759 mmHg 77%
    09:00 +11°C° 0 mm 3 m/s 758 mmHg 68%
    10:00 +12°C° 0 mm 3 m/s 758 mmHg 63%
    11:00 +13°C° 0 mm 4 m/s 758 mmHg 58%
    12:00 +15°C° 0 mm 4 m/s 758 mmHg 53%
    13:00 +14°C° 0 mm 3 m/s 757 mmHg 58%
    14:00 +13°C° 0 mm 3 m/s 757 mmHg 63%
    15:00 +12°C° 0 mm 3 m/s 756 mmHg 69%
    16:00 +12°C° 0.5 mm 2 m/s 756 mmHg 77%
    17:00 +11°C° 0.5 mm 1 m/s 756 mmHg 85%
    18:00 +10°C° 0.5 mm 1 m/s 756 mmHg 94%
    19:00 +9°C° 0 mm 1 m/s 756 mmHg 95%
    20:00 +7°C° 0 mm 2 m/s 756 mmHg 95%
    21:00 +6°C° 0 mm 2 m/s 757 mmHg 96%
    22:00 +6°C° 0 mm 2 m/s 757 mmHg 96%
    23:00 +5°C° 0 mm 2 m/s 757 mmHg 96%
    Mostrar mais